Time,TemperatureF,DewpointF,PressureIn,WindDirection,WindDirectionDegrees,WindSpeedMPH,WindSpeedGustMPH,Humidity,HourlyPrecipIn,Conditions,Clouds,dailyrainin,SolarRadiationWatts/m^2,SoftwareType,DateUTC
2013-05-08 00:01:00,53.0,42.0,-100.00,NW,312,10.0,17.0,67,0.00,,,0.00,0.000000,,2013-05-08 07:01:00,
2013-05-08 00:11:00,53.0,42.0,-100.00,NW,312,10.0,17.0,67,0.00,,,0.00,0.000000,,2013-05-08 07:11:00,
2013-05-08 00:21:00,53.0,42.0,-100.00,NW,312,10.0,17.0,67,0.00,,,0.00,0.000000,,2013-05-08 07:21:00,
2013-05-08 00:31:00,53.0,42.0,-100.00,NW,312,10.0,17.0,67,0.00,,,0.00,0.000000,,2013-05-08 07:31:00,
2013-05-08 00:52:00,53.0,43.0,-100.00,NW,308,9.0,15.0,69,0.00,,,0.00,0.000000,,2013-05-08 07:52:00,
2013-05-08 01:01:00,53.0,43.0,-100.00,NW,308,9.0,15.0,69,0.00,,,0.00,0.000000,,2013-05-08 08:01:00,
2013-05-08 01:11:00,53.0,43.0,-100.00,NW,308,9.0,15.0,69,0.00,,,0.00,0.000000,,2013-05-08 08:11:00,
2013-05-08 01:21:00,53.0,43.0,-100.00,NW,308,9.0,15.0,69,0.00,,,0.00,0.000000,,2013-05-08 08:21:00,
2013-05-08 01:31:00,53.0,43.0,-100.00,NW,308,9.0,15.0,69,0.00,,,0.00,0.000000,,2013-05-08 08:31:00,
2013-05-08 01:52:00,52.0,42.0,-100.00,NW,304,7.0,14.0,69,0.00,,,0.00,0.000000,,2013-05-08 08:52:00,
2013-05-08 02:02:00,52.0,42.0,-100.00,NW,304,7.0,14.0,69,0.00,,,0.00,0.000000,,2013-05-08 09:02:00,
2013-05-08 02:11:00,52.0,42.0,-100.00,NW,304,7.0,14.0,69,0.00,,,0.00,0.000000,,2013-05-08 09:11:00,
2013-05-08 02:21:00,52.0,42.0,-100.00,NW,304,7.0,14.0,69,0.00,,,0.00,0.000000,,2013-05-08 09:21:00,
2013-05-08 02:32:00,52.0,42.0,-100.00,NW,304,7.0,14.0,69,0.00,,,0.00,0.000000,,2013-05-08 09:32:00,
2013-05-08 02:53:00,51.0,42.0,-100.00,NW,317,9.0,14.0,72,0.00,,,0.00,0.000000,,2013-05-08 09:53:00,
2013-05-08 03:02:00,51.0,42.0,-100.00,NW,317,9.0,14.0,72,0.00,,,0.00,0.000000,,2013-05-08 10:02:00,
2013-05-08 03:12:00,51.0,42.0,-100.00,NW,317,9.0,14.0,72,0.00,,,0.00,0.000000,,2013-05-08 10:12:00,
2013-05-08 03:22:00,51.0,42.0,-100.00,NW,317,9.0,14.0,72,0.00,,,0.00,0.000000,,2013-05-08 10:22:00,
2013-05-08 03:33:00,51.0,42.0,-100.00,NW,317,9.0,14.0,72,0.00,,,0.00,0.000000,,2013-05-08 10:33:00,
2013-05-08 03:52:00,50.0,43.0,-100.00,NW,314,9.0,15.0,78,0.00,,,0.00,0.000000,,2013-05-08 10:52:00,
2013-05-08 04:02:00,50.0,43.0,-100.00,NW,314,9.0,15.0,78,0.00,,,0.00,0.000000,,2013-05-08 11:02:00,
2013-05-08 04:11:00,50.0,43.0,-100.00,NW,314,9.0,15.0,78,0.00,,,0.00,0.000000,,2013-05-08 11:11:00,
2013-05-08 04:22:00,50.0,43.0,-100.00,NW,314,9.0,15.0,78,0.00,,,0.00,0.000000,,2013-05-08 11:22:00,
2013-05-08 04:32:00,50.0,43.0,-100.00,NW,314,9.0,15.0,78,0.00,,,0.00,0.000000,,2013-05-08 11:32:00,
2013-05-08 04:52:00,49.0,42.0,-100.00,NW,308,9.0,16.0,78,0.00,,,0.00,0.000000,,2013-05-08 11:52:00,
2013-05-08 05:01:00,49.0,42.0,-100.00,NW,308,9.0,16.0,78,0.00,,,0.00,0.000000,,2013-05-08 12:01:00,
2013-05-08 05:11:00,49.0,42.0,-100.00,NW,308,9.0,16.0,78,0.00,,,0.00,0.000000,,2013-05-08 12:11:00,
2013-05-08 05:21:00,49.0,42.0,-100.00,NW,308,9.0,16.0,78,0.00,,,0.00,0.000000,,2013-05-08 12:21:00,
2013-05-08 05:31:00,49.0,42.0,-100.00,NW,308,9.0,16.0,78,0.00,,,0.00,0.000000,,2013-05-08 12:31:00,
2013-05-08 05:52:00,50.0,43.0,-100.00,NW,317,9.0,15.0,77,0.00,,,0.00,0.000000,,2013-05-08 12:52:00,
2013-05-08 06:01:00,50.0,43.0,-100.00,NW,317,9.0,15.0,77,0.00,,,0.00,0.000000,,2013-05-08 13:01:00,
2013-05-08 06:11:00,50.0,43.0,-100.00,NW,317,9.0,15.0,77,0.00,,,0.00,0.000000,,2013-05-08 13:11:00,
2013-05-08 06:21:00,50.0,43.0,-100.00,NW,317,9.0,15.0,77,0.00,,,0.00,0.000000,,2013-05-08 13:21:00,
2013-05-08 06:32:00,50.0,43.0,-100.00,NW,317,9.0,15.0,77,0.00,,,0.00,0.000000,,2013-05-08 13:32:00,
2013-05-08 06:52:00,52.0,43.0,-100.00,NW,312,8.0,14.0,70,0.00,,,0.00,25.000000,,2013-05-08 13:52:00,
2013-05-08 07:02:00,52.0,43.0,-100.00,NW,312,8.0,14.0,70,0.00,,,0.00,25.000000,,2013-05-08 14:02:00,
2013-05-08 07:11:00,52.0,43.0,-100.00,NW,312,8.0,14.0,70,0.00,,,0.00,25.000000,,2013-05-08 14:11:00,
2013-05-08 07:21:00,52.0,43.0,-100.00,NW,312,8.0,14.0,70,0.00,,,0.00,25.000000,,2013-05-08 14:21:00,
2013-05-08 07:31:00,52.0,43.0,-100.00,NW,312,8.0,14.0,70,0.00,,,0.00,25.000000,,2013-05-08 14:31:00,
2013-05-08 07:52:00,53.0,45.0,-100.00,WNW,293,11.0,16.0,73,0.00,,,0.00,154.000000,,2013-05-08 14:52:00,
2013-05-08 08:01:00,53.0,45.0,-100.00,WNW,293,11.0,16.0,73,0.00,,,0.00,154.000000,,2013-05-08 15:01:00,
2013-05-08 08:11:00,53.0,45.0,-100.00,WNW,293,11.0,16.0,73,0.00,,,0.00,154.000000,,2013-05-08 15:11:00,
2013-05-08 08:21:00,53.0,45.0,-100.00,WNW,293,11.0,16.0,73,0.00,,,0.00,154.000000,,2013-05-08 15:21:00,
2013-05-08 08:32:00,53.0,45.0,-100.00,WNW,293,11.0,16.0,73,0.00,,,0.00,154.000000,,2013-05-08 15:32:00,
2013-05-08 08:53:00,56.0,46.0,-100.00,WNW,287,8.0,17.0,68,0.00,,,-99.99,364.000000,,2013-05-08 15:53:00,
2013-05-08 09:03:00,56.0,46.0,-100.00,WNW,287,8.0,17.0,68,0.00,,,-99.99,364.000000,,2013-05-08 16:03:00,
2013-05-08 09:12:00,56.0,46.0,-100.00,WNW,287,8.0,17.0,68,0.00,,,-99.99,364.000000,,2013-05-08 16:12:00,
2013-05-08 09:23:00,56.0,46.0,-100.00,WNW,287,8.0,17.0,68,0.00,,,-99.99,364.000000,,2013-05-08 16:23:00,
2013-05-08 09:33:00,56.0,46.0,-100.00,WNW,287,8.0,17.0,68,0.00,,,-99.99,364.000000,,2013-05-08 16:33:00,
2013-05-08 09:52:00,61.0,47.0,-100.00,SSW,204,5.0,10.0,59,0.00,,,-99.99,544.000000,,2013-05-08 16:52:00,
2013-05-08 10:02:00,61.0,47.0,-100.00,SSW,204,5.0,10.0,59,0.00,,,-99.99,544.000000,,2013-05-08 17:02:00,
2013-05-08 10:11:00,61.0,47.0,-100.00,SSW,204,5.0,10.0,59,0.00,,,-99.99,544.000000,,2013-05-08 17:11:00,
2013-05-08 10:22:00,61.0,47.0,-100.00,SSW,204,5.0,10.0,59,0.00,,,-99.99,544.000000,,2013-05-08 17:22:00,
2013-05-08 10:31:00,61.0,47.0,-100.00,SSW,204,5.0,10.0,59,0.00,,,-99.99,544.000000,,2013-05-08 17:31:00,
2013-05-08 10:52:00,65.0,47.0,-100.00,SSW,196,4.0,11.0,52,0.00,,,0.00,700.000000,,2013-05-08 17:52:00,
2013-05-08 11:02:00,65.0,47.0,-100.00,SSW,196,4.0,11.0,52,0.00,,,0.00,700.000000,,2013-05-08 18:02:00,
2013-05-08 11:11:00,65.0,47.0,-100.00,SSW,196,4.0,11.0,52,0.00,,,0.00,700.000000,,2013-05-08 18:11:00,
2013-05-08 11:21:00,65.0,47.0,-100.00,SSW,196,4.0,11.0,52,0.00,,,0.00,700.000000,,2013-05-08 18:21:00,
2013-05-08 11:31:00,65.0,47.0,-100.00,SSW,196,4.0,11.0,52,0.00,,,0.00,700.000000,,2013-05-08 18:31:00,
2013-05-08 11:52:00,69.0,48.0,-100.00,SSW,202,4.0,7.0,47,0.00,,,0.00,822.000000,,2013-05-08 18:52:00,
2013-05-08 12:01:00,69.0,48.0,-100.00,SSW,202,4.0,7.0,47,0.00,,,0.00,822.000000,,2013-05-08 19:01:00,
2013-05-08 12:11:00,69.0,48.0,-100.00,SSW,202,4.0,7.0,47,0.00,,,0.00,822.000000,,2013-05-08 19:11:00,
2013-05-08 12:21:00,69.0,48.0,-100.00,SSW,202,4.0,7.0,47,0.00,,,0.00,822.000000,,2013-05-08 19:21:00,
2013-05-08 12:31:00,69.0,48.0,-100.00,SSW,202,4.0,7.0,47,0.00,,,0.00,822.000000,,2013-05-08 19:31:00,
2013-05-08 12:52:00,73.0,49.0,-100.00,SE,135,4.0,9.0,43,0.00,,,0.00,895.000000,,2013-05-08 19:52:00,
2013-05-08 13:01:00,73.0,49.0,-100.00,SE,135,4.0,9.0,43,0.00,,,0.00,895.000000,,2013-05-08 20:01:00,
2013-05-08 13:11:00,73.0,49.0,-100.00,SE,135,4.0,9.0,43,0.00,,,0.00,895.000000,,2013-05-08 20:11:00,
2013-05-08 13:22:00,73.0,49.0,-100.00,SE,135,4.0,9.0,43,0.00,,,0.00,895.000000,,2013-05-08 20:22:00,
2013-05-08 13:32:00,73.0,49.0,-100.00,SE,135,4.0,9.0,43,0.00,,,0.00,895.000000,,2013-05-08 20:32:00,
2013-05-08 13:52:00,76.0,47.0,-100.00,ESE,112,5.0,9.0,36,0.00,,,0.00,915.000000,,2013-05-08 20:52:00,
2013-05-08 14:01:00,76.0,47.0,-100.00,ESE,112,5.0,9.0,36,0.00,,,0.00,915.000000,,2013-05-08 21:01:00,
2013-05-08 14:11:00,76.0,47.0,-100.00,ESE,112,5.0,9.0,36,0.00,,,0.00,915.000000,,2013-05-08 21:11:00,
2013-05-08 14:21:00,76.0,47.0,-100.00,ESE,112,5.0,9.0,36,0.00,,,0.00,915.000000,,2013-05-08 21:21:00,
2013-05-08 14:32:00,76.0,47.0,-100.00,ESE,112,5.0,9.0,36,0.00,,,0.00,915.000000,,2013-05-08 21:32:00,
2013-05-08 14:53:00,72.0,41.0,-100.00,NE,54,5.0,10.0,33,0.00,,,0.00,700.000000,,2013-05-08 21:53:00,
2013-05-08 15:02:00,72.0,41.0,-100.00,NE,54,5.0,10.0,33,0.00,,,0.00,700.000000,,2013-05-08 22:02:00,
2013-05-08 15:12:00,72.0,41.0,-100.00,NE,54,5.0,10.0,33,0.00,,,0.00,700.000000,,2013-05-08 22:12:00,
2013-05-08 15:22:00,72.0,41.0,-100.00,NE,54,5.0,10.0,33,0.00,,,0.00,700.000000,,2013-05-08 22:22:00,
2013-05-08 15:32:00,72.0,41.0,-100.00,NE,54,5.0,10.0,33,0.00,,,0.00,700.000000,,2013-05-08 22:32:00,
2013-05-08 15:52:00,76.0,41.0,-100.00,NE,35,7.0,14.0,29,0.00,,,0.00,373.000000,,2013-05-08 22:52:00,
2013-05-08 16:01:00,76.0,41.0,-100.00,NE,35,7.0,14.0,29,0.00,,,0.00,373.000000,,2013-05-08 23:01:00,
2013-05-08 16:11:00,76.0,41.0,-100.00,NE,35,7.0,14.0,29,0.00,,,0.00,373.000000,,2013-05-08 23:11:00,
2013-05-08 16:22:00,76.0,41.0,-100.00,NE,35,7.0,14.0,29,0.00,,,0.00,373.000000,,2013-05-08 23:22:00,
2013-05-08 16:32:00,76.0,41.0,-100.00,NE,35,7.0,14.0,29,0.00,,,0.00,373.000000,,2013-05-08 23:32:00,
2013-05-08 16:52:00,76.0,37.0,-100.00,NNE,12,5.0,13.0,24,0.00,,,0.00,380.000000,,2013-05-08 23:52:00,
2013-05-08 17:02:00,76.0,37.0,-100.00,NNE,12,5.0,13.0,24,0.00,,,0.00,380.000000,,2013-05-09 00:02:00,
2013-05-08 17:11:00,76.0,37.0,-100.00,NNE,12,5.0,13.0,24,0.00,,,0.00,380.000000,,2013-05-09 00:11:00,
2013-05-08 17:21:00,76.0,37.0,-100.00,NNE,12,5.0,13.0,24,0.00,,,0.00,380.000000,,2013-05-09 00:21:00,
2013-05-08 17:32:00,76.0,37.0,-100.00,NNE,12,5.0,13.0,24,0.00,,,0.00,380.000000,,2013-05-09 00:32:00,
2013-05-08 17:52:00,74.0,35.0,-100.00,NNE,19,9.0,18.0,24,0.00,,,0.00,515.000000,,2013-05-09 00:52:00,
2013-05-08 18:01:00,74.0,35.0,-100.00,NNE,19,9.0,18.0,24,0.00,,,0.00,515.000000,,2013-05-09 01:01:00,
2013-05-08 18:11:00,74.0,35.0,-100.00,NNE,19,9.0,18.0,24,0.00,,,0.00,515.000000,,2013-05-09 01:11:00,
2013-05-08 18:22:00,74.0,35.0,-100.00,NNE,19,9.0,18.0,24,0.00,,,0.00,515.000000,,2013-05-09 01:22:00,
2013-05-08 18:32:00,74.0,35.0,-100.00,NNE,19,9.0,18.0,24,0.00,,,0.00,515.000000,,2013-05-09 01:32:00,
2013-05-08 18:52:00,71.0,38.0,-100.00,NW,312,9.0,16.0,30,0.00,,,0.00,125.000000,,2013-05-09 01:52:00,
2013-05-08 19:02:00,71.0,38.0,-100.00,NW,312,9.0,16.0,30,0.00,,,0.00,125.000000,,2013-05-09 02:02:00,
2013-05-08 19:11:00,71.0,38.0,-100.00,NW,312,9.0,16.0,30,0.00,,,0.00,125.000000,,2013-05-09 02:11:00,
2013-05-08 19:21:00,71.0,38.0,-100.00,NW,312,9.0,16.0,30,0.00,,,0.00,125.000000,,2013-05-09 02:21:00,
2013-05-08 19:32:00,71.0,38.0,-100.00,NW,312,9.0,16.0,30,0.00,,,0.00,125.000000,,2013-05-09 02:32:00,
2013-05-08 20:01:00,68.0,38.0,-100.00,West,269,4.0,16.0,33,0.00,,,0.00,175.000000,,2013-05-09 03:01:00,
2013-05-08 20:11:00,68.0,38.0,-100.00,West,269,4.0,16.0,33,0.00,,,0.00,175.000000,,2013-05-09 03:11:00,
2013-05-08 20:21:00,68.0,38.0,-100.00,West,269,4.0,16.0,33,0.00,,,0.00,175.000000,,2013-05-09 03:21:00,
2013-05-08 20:32:00,68.0,38.0,-100.00,West,269,4.0,16.0,33,0.00,,,0.00,175.000000,,2013-05-09 03:32:00,
2013-05-08 20:53:00,62.0,37.0,-100.00,NW,305,9.0,16.0,39,0.00,,,0.00,14.000000,,2013-05-09 03:53:00,
2013-05-08 21:03:00,62.0,37.0,-100.00,NW,305,9.0,16.0,39,0.00,,,0.00,14.000000,,2013-05-09 04:03:00,
2013-05-08 21:12:00,62.0,37.0,-100.00,NW,305,9.0,16.0,39,0.00,,,0.00,14.000000,,2013-05-09 04:12:00,
2013-05-08 21:23:00,62.0,37.0,-100.00,NW,305,9.0,16.0,39,0.00,,,0.00,14.000000,,2013-05-09 04:23:00,
2013-05-08 21:32:00,62.0,37.0,-100.00,NW,305,9.0,16.0,39,0.00,,,0.00,14.000000,,2013-05-09 04:32:00,
2013-05-08 21:53:00,59.0,38.0,-100.00,NNW,327,9.0,15.0,46,0.00,,,0.00,0.000000,,2013-05-09 04:53:00,
2013-05-08 22:02:00,59.0,38.0,-100.00,NNW,327,9.0,15.0,46,0.00,,,0.00,0.000000,,2013-05-09 05:02:00,
2013-05-08 22:12:00,59.0,38.0,-100.00,NNW,327,9.0,15.0,46,0.00,,,0.00,0.000000,,2013-05-09 05:12:00,
2013-05-08 22:22:00,59.0,38.0,-100.00,NNW,327,9.0,15.0,46,0.00,,,0.00,0.000000,,2013-05-09 05:22:00,
2013-05-08 22:32:00,59.0,38.0,-100.00,NNW,327,9.0,15.0,46,0.00,,,0.00,0.000000,,2013-05-09 05:32:00,
2013-05-08 22:52:00,58.0,36.0,-100.00,NW,315,10.0,15.0,43,0.00,,,0.00,0.000000,,2013-05-09 05:52:00,
2013-05-08 23:01:00,58.0,36.0,-100.00,NW,315,10.0,15.0,43,0.00,,,0.00,0.000000,,2013-05-09 06:01:00,
2013-05-08 23:11:00,58.0,36.0,-100.00,NW,315,10.0,15.0,43,0.00,,,0.00,0.000000,,2013-05-09 06:11:00,
2013-05-08 23:21:00,58.0,36.0,-100.00,NW,315,10.0,15.0,43,0.00,,,0.00,0.000000,,2013-05-09 06:21:00,
2013-05-08 23:32:00,58.0,36.0,-100.00,NW,315,10.0,15.0,43,0.00,,,0.00,0.000000,,2013-05-09 06:32:00,
2013-05-08 23:52:00,57.0,38.0,-100.00,NW,312,9.0,17.0,49,0.00,,,0.00,0.000000,,2013-05-09 06:52:00,